TimePST,TemperatureF,Dew PointF,Humidity,Sea Level PressureIn,VisibilityMPH,Wind Direction,Wind SpeedMPH,Gust SpeedMPH,PrecipitationIn,Events,Conditions,WindDirDegrees,DateUTC
12:04 AM,39.2,33.8,81,29.98,9.0,Calm,Calm,-,N/A,,Overcast,0,2012-11-16 08:04:00
12:48 AM,39.2,33.8,81,29.97,8.0,Calm,Calm,-,N/A,,Overcast,0,2012-11-16 08:48:00
12:53 AM,39.0,34.0,82,30.01,8.0,Calm,Calm,-,N/A,,Overcast,0,2012-11-16 08:53:00
1:31 AM,39.2,33.8,81,29.97,8.0,Calm,Calm,-,N/A,,Overcast,0,2012-11-16 09:31:00
1:53 AM,39.0,34.0,82,30.01,8.0,Calm,Calm,-,N/A,,Overcast,0,2012-11-16 09:53:00
2:01 AM,39.2,33.8,81,29.97,8.0,Calm,Calm,-,N/A,,Overcast,0,2012-11-16 10:01:00
2:10 AM,39.2,33.8,81,29.97,8.0,Calm,Calm,-,N/A,,Overcast,0,2012-11-16 10:10:00
2:16 AM,39.2,33.8,81,29.97,7.0,Calm,Calm,-,N/A,,Overcast,0,2012-11-16 10:16:00
2:53 AM,39.0,35.1,86,30.00,7.0,Calm,Calm,-,N/A,,Overcast,0,2012-11-16 10:53:00
3:53 AM,39.0,34.0,82,29.98,7.0,Calm,Calm,-,N/A,,Overcast,0,2012-11-16 11:53:00
4:27 AM,39.2,33.8,81,29.95,7.0,Calm,Calm,-,N/A,,Overcast,0,2012-11-16 12:27:00
4:53 AM,39.0,34.0,82,29.98,7.0,Calm,Calm,-,N/A,,Overcast,0,2012-11-16 12:53:00
5:45 AM,39.2,35.6,87,29.95,5.0,Calm,Calm,-,N/A,,Overcast,0,2012-11-16 13:45:00
5:53 AM,39.0,35.1,86,29.98,5.0,Calm,Calm,-,N/A,,Overcast,0,2012-11-16 13:53:00
6:00 AM,39.2,35.6,87,29.94,5.0,Calm,Calm,-,N/A,,Overcast,0,2012-11-16 14:00:00
6:09 AM,39.2,35.6,87,29.94,5.0,Calm,Calm,-,N/A,,Overcast,0,2012-11-16 14:09:00
6:53 AM,39.0,35.1,86,29.98,5.0,Calm,Calm,-,N/A,,Overcast,0,2012-11-16 14:53:00
7:53 AM,39.0,35.1,86,29.99,7.0,Calm,Calm,-,N/A,,Overcast,0,2012-11-16 15:53:00
8:53 AM,39.0,35.1,86,30.00,5.0,Calm,Calm,-,N/A,,Overcast,0,2012-11-16 16:53:00
9:05 AM,39.2,35.6,87,29.97,5.0,Calm,Calm,-,N/A,,Overcast,0,2012-11-16 17:05:00
9:53 AM,39.9,35.1,83,30.01,7.0,Calm,Calm,-,N/A,,Overcast,0,2012-11-16 17:53:00
10:53 AM,41.0,34.0,76,29.99,9.0,Calm,Calm,-,N/A,,Overcast,0,2012-11-16 18:53:00
11:53 AM,42.1,34.0,73,29.98,10.0,Calm,Calm,-,N/A,,Overcast,0,2012-11-16 19:53:00
12:22 PM,42.8,33.8,70,29.94,10.0,Calm,Calm,-,N/A,,Overcast,0,2012-11-16 20:22:00
12:53 PM,42.1,34.0,73,29.96,10.0,Calm,Calm,-,N/A,,Overcast,0,2012-11-16 20:53:00
1:53 PM,42.1,34.0,73,29.96,10.0,Calm,Calm,-,N/A,,Overcast,0,2012-11-16 21:53:00
2:53 PM,42.1,34.0,73,29.95,10.0,Calm,Calm,-,N/A,,Overcast,0,2012-11-16 22:53:00
3:53 PM,42.1,33.1,70,29.95,10.0,Calm,Calm,-,N/A,,Overcast,0,2012-11-16 23:53:00
4:23 PM,42.8,33.8,70,29.92,10.0,Calm,Calm,-,N/A,,Overcast,0,2012-11-17 00:23:00
4:53 PM,42.1,34.0,73,29.95,10.0,Calm,Calm,-,N/A,,Overcast,0,2012-11-17 00:53:00
5:53 PM,41.0,36.0,82,29.95,5.0,ESE,4.6,-,N/A,,Haze,120,2012-11-17 01:53:00
6:53 PM,41.0,36.0,82,29.94,5.0,ESE,5.8,-,N/A,,Haze,110,2012-11-17 02:53:00
7:53 PM,41.0,36.0,82,29.94,5.0,ESE,6.9,-,N/A,,Haze,110,2012-11-17 03:53:00
8:17 PM,41.0,35.6,81,29.91,5.0,ESE,5.8,-,N/A,,Haze,120,2012-11-17 04:17:00
8:43 PM,41.0,35.6,81,29.91,5.0,ESE,4.6,-,N/A,,Haze,110,2012-11-17 04:43:00
8:53 PM,41.0,36.0,82,29.94,5.0,ESE,6.9,-,N/A,,Haze,120,2012-11-17 04:53:00
9:53 PM,41.0,36.0,82,29.94,6.0,East,4.6,-,N/A,,Haze,100,2012-11-17 05:53:00
10:16 PM,41.0,35.6,81,29.90,6.0,ESE,5.8,-,N/A,,Haze,120,2012-11-17 06:16:00
10:53 PM,39.9,36.0,86,29.92,6.0,SE,4.6,-,N/A,,Overcast,140,2012-11-17 06:53:00
11:07 PM,39.2,35.6,87,29.88,6.0,SSE,4.6,-,N/A,,Overcast,160,2012-11-17 07:07:00
11:45 PM,39.2,35.6,87,29.88,6.0,Calm,Calm,-,N/A,,Mostly Cloudy,0,2012-11-17 07:45:00
11:53 PM,39.9,35.1,83,29.91,6.0,NNE,4.6,-,N/A,,Haze,20,2012-11-17 07:53:00